Retour au catalogue

STARLINK-36384

ActifCommunicationsSSO
NORAD 67597·PAYLOAD·🇺🇸 United States

Lancé Jan 29, 2026 depuis Vandenberg Space Force Base

Loading…

Prochains Passages (prochaines 24 heures)

TLE

FraisSource: CelesTrak SupGP

Époque: Sep 15, 2026, 03:32 UTC

1 67597C 26018J   26258.14770833  .00085760  00000+0  26569-2 0  2580
2 67597  97.2845 321.7350 0001002  87.0108 264.0370 15.33458821    12

Suivez STARLINK-36384 en temps réel avec AllMySat

Download on the App Store